Location: Tehachapi Municipal Airport
(35.1300°N, 118.4400°W)
Time: 17:15:22
(UTC-07:00)

Daily predictions for brighter satellites

Satellite Brightness Start Highest point End
(mag) Time Altitude Azimuth Time Altitude Azimuth Time Altitude Azimuth
Aureole 2 Rocket 3.7 20:22:07 10° SSE 20:25:32 27° ESE 20:28:44 10° NE
GEOS 3 Rocket 4.0 20:21:00 10° SE 20:26:08 54° NE 20:31:13 10° NNW
ALOS 2.3 20:25:23 10° SSE 20:30:01 65° ENE 20:34:38 10° N
Cosmos 2237 Rocket 3.5 20:25:12 10° SW 20:30:35 47° WNW 20:36:01 10° N
deb Chang Zheng 4 4.2 20:29:27 10° NNE 20:33:33 37° E 20:37:34 10° SSE
ATLAS CENTAUR R/B 3.8 20:37:14 10° WSW 20:41:44 35° NW 20:46:21 10° NNE
Cosmos 2278 Rocket 2.6 20:36:11 10° NNW 20:41:50 67° WSW 20:47:26 10° S
Cosmos 1606 Rocket 3.5 20:37:31 10° N 20:41:57 73° E 20:46:19 10° SSE
CZ-2D R/B 3.7 20:40:46 10° S 20:44:37 65° W 20:48:31 10° NNW
Cosmos 1331 Rocket 4.1 20:40:11 10° N 20:45:19 58° ENE 20:50:23 10° SSE
H-2A R/B 2.7 20:42:37 10° SE 20:46:33 39° ENE 20:50:35 10° N
Atlas Centaur 2 3.3 20:41:51 10° SW 20:48:40 44° SSE 20:56:30 10° E
SeaSat 1 3.9 20:47:09 10° ESE 20:50:57 24° NE 20:54:51 10° N
Cosmos 1666 3.6 20:49:07 10° NNE 20:52:40 32° E 20:55:25 15° SE
Cosmos 1500 4.5 20:50:19 10° NNW 20:54:00 42° W 20:57:41 10° SSW
Cosmos 1626 Rocket 4.3 20:50:56 10° SSE 20:54:55 33° E 20:58:54 10° NNE
Cosmos 1939 Rocket 3.7 20:53:32 14° SE 20:56:44 36° ENE 21:00:34 10° N
SL-16 R/B 2.7 20:52:48 10° SSW 20:58:24 64° WNW 21:04:02 10° NNE
Lacrosse 5 rocket 4.3 21:03:29 10° W 21:06:10 18° NW 21:08:57 10° N
OAO 3 Copernicus 4.3 21:01:17 10° W 21:06:20 80° S 21:10:17 17° ESE
Cosmos 1743 3.4 21:03:01 10° NNW 21:06:47 53° W 21:10:29 10° S
COSMOS 2455 3.2 21:01:54 10° S 21:07:25 40° ESE 21:12:58 10° NE
Cosmos 2228 3.2 21:04:20 10° N 21:08:41 58° E 21:12:02 16° SSE
APEX 3.9 21:10:19 10° NNW 21:14:31 61° ENE 21:18:08 20° SE
USA 186 3.9 21:12:46 10° SSW 21:15:04 21° W 21:17:16 10° NW
BREEZE-M DEB (TANK) 2.2 21:16:28 10° NW 21:18:46 46° NE 21:19:20 35° E
ATLAS 3B R/B 3.6 21:15:07 10° SSE 21:21:39 31° ESE 21:28:10 10° NE
ERS-1 Rocket 3.3 21:17:02 10° S 21:22:00 67° WSW 21:27:01 10° NNW
Abrixas rocket 2.7 21:19:36 10° NW 21:22:57 53° NE 21:24:24 29° E
Envisat 3.0 21:22:53 21° SSE 21:26:17 67° ENE 21:31:20 10° N
Cosmos 1603 3.6 21:21:43 10° SSW 21:27:19 84° ESE 21:32:57 10° NNE
Cosmos 1891 Rocket 4.4 21:24:24 10° N 21:30:34 86° E 21:35:22 17° S
Lacrosse 4 Rocket 3.6 21:35:27 11° ENE 21:35:27 11° ENE 21:35:47 10° ENE
YAOGAN 6 3.5 21:36:50 31° E 21:37:22 33° ENE 21:40:45 10° N
USA 234 4.0 21:33:09 18° E 21:37:42 44° NE 21:43:51 10° NNW
ISS -3.5 21:34:40 10° SW 21:37:56 88° ESE 21:41:12 10° NE
CZ-2C R/B 3.4 21:36:43 10° SW 21:37:59 13° W 21:39:15 10° WNW
PSLV R/B 4.2 21:35:41 10° W 21:39:09 52° NNW 21:42:18 12° ENE
UNK 4.2 21:43:42 10° NNE 21:49:10 88° WNW 21:54:54 10° SSW
Cosmos 1943 3.3 21:49:02 28° S 21:51:49 52° ESE 21:57:19 10° NNE
Tsikada Rocket 4.2 21:46:09 10° SSW 21:52:32 73° W 21:58:56 10° N
CZ-4 SHROUD 3.9 21:52:22 40° SW 21:53:02 49° W 21:56:07 10° NNW
CZ-4 R/B 4.0 21:48:13 10° NNE 21:53:08 54° E 21:54:39 39° SSE
Timation 1 Rocket 4.4 21:47:25 10° NNW 21:53:27 78° WSW 21:56:28 31° SSE
Cosmos 1461 2.8 21:50:00 10° NNW 21:54:15 82° WSW 21:55:10 53° SSE
Cosmos 1238 4.3 21:55:12 61° SW 21:55:37 75° W 21:58:39 10° N
Milstar 3 Cent rocket 3.5 21:50:32 10° WSW 21:55:39 23° SSW 21:56:46 21° S
SPOT 5 2.9 21:54:49 32° S 21:56:47 65° WSW 22:01:07 10° NNW
MetOp-A 4.1 21:58:02 34° S 22:00:26 86° WSW 22:05:50 10° NNW
Cosmos 1943 Rocket 4.2 22:00:30 10° NNE 22:03:23 14° NE 22:05:02 13° ENE
Cosmos 1825 Rocket 3.5 22:03:51 57° SE 22:04:33 67° E 22:08:58 10° NNE
SL-08 RB Rocket 4.1 22:05:28 44° E 22:05:58 46° ENE 22:10:18 10° N
Cosmos 1992 Rocket 4.2 22:02:09 10° N 22:07:17 56° ENE 22:08:21 47° ESE
H-2A R/B 3.0 22:09:27 28° ENE 22:09:54 28° ENE 22:14:09 10° N
Cosmos 1812 Rocket 4.1 22:09:11 10° NNW 22:13:28 53° W 22:14:49 37° SSW
SPOT 1/Viking Rocket 3.5 22:17:00 50° S 22:18:23 82° WSW 22:23:35 10° NNW
Terra 2.8 22:18:26 31° ENE 22:18:28 31° ENE 22:22:38 10° N
Cosmos 1190 Rocket 3.9 22:20:42 47° S 22:22:18 85° ESE 22:27:39 10° NNE
USA 245 4.4 22:20:45 40° S 22:23:01 75° WSW 22:28:30 10° NNW
Geosat 3.8 22:18:01 10° NNE 22:23:04 85° ESE 22:24:33 47° SSW
CZ-4C R/B 3.6 22:24:36 63° ENE 22:24:36 63° ENE 22:28:30 10° N
Cosmos 2142 Rocket 4.4 22:18:56 10° N 22:25:15 81° E 22:26:59 50° SSE
SeaSat 1 3.4 22:26:57 33° SW 22:28:14 40° WSW 22:32:52 10° NW
ARGOS 3.2 22:33:36 56° SSW 22:34:42 74° WSW 22:40:08 10° NNW
DMSP B5D2-2 4.3 22:29:37 10° NNE 22:34:22 51° E 22:34:22 51° E
Cosmos 1634 Rocket 4.0 22:30:26 10° N 22:36:36 78° W 22:38:19 50° S
Atlas Centaur 2 3.0 22:30:19 10° WSW 22:38:10 63° S 22:40:54 44° ESE
Cosmos 676 Rocket 3.9 22:38:47 70° E 22:38:47 70° E 22:44:02 10° NNE
Cosmos 2369 Rocket 2.0 22:33:51 10° NNW 22:39:32 76° ENE 22:40:04 69° ESE
Cosmos 1900 4.2 22:40:59 84° S 22:41:09 87° ESE 22:46:19 10° NNE
NOAA 11 4.4 22:46:21 55° SW 22:47:11 62° WSW 22:52:34 10° NNW
Cosmos 1953 4.2 22:43:55 10° NNE 22:45:51 23° NE 22:45:51 23° NE
Cosmos 1953 Rocket 4.3 22:49:50 47° W 22:50:01 47° W 22:54:19 10° N
IGS 5A 4.4 22:56:53 44° N 22:56:53 44° N 22:59:50 10° N
Cosmos 2279 Rocket 3.8 22:54:47 10° N 23:01:04 87° W 23:01:43 74° S
COSMOS 2406 4.0 23:03:10 40° ENE 23:03:10 40° ENE 23:07:11 10° NNE
Cosmos 2263 4.1 22:57:54 10° NNW 23:03:26 85° NNE 23:03:26 85° NNE
Lacrosse 4 Rocket 3.0 23:11:44 31° NW 23:11:44 31° NW 23:15:15 10° N
Cosmos 1932 4.3 23:11:30 85° SSW 23:11:41 90° ESE 23:17:55 10° NNE
ATLAS 3B R/B 3.6 23:04:38 10° SW 23:12:07 53° NW 23:19:29 10° NNE
Cosmos-2242 4.1 23:09:05 10° N 23:12:08 44° N 23:12:08 44° N
ISS 0.1 23:13:17 10° NW 23:14:46 12° NNW 23:16:16 10° N
Cosmos 2180 Rocket 4.5 23:12:56 10° N 23:19:12 75° W 23:19:34 73° SW
USA 234 3.6 23:20:29 48° SW 23:20:35 48° SW 23:26:54 10° NW
Cosmos 1607 4.4 23:24:11 49° ENE 23:24:11 49° ENE 23:28:52 10° NE
USA 238 DEB 3.9 23:45:40 55° WSW 23:47:05 68° WNW 23:54:09 10° NNE
USA 238 3.9 23:45:51 57° WSW 23:47:11 69° WNW 23:54:15 10° NNE
Cosmos 1943 Rocket 2.7 23:42:09 10° NNW 23:46:33 56° NW 23:46:33 56° NW
H-2A R/B 3.6 23:50:05 25° W 23:50:05 25° W 23:53:25 10° NW
Meteor 2-5 Rocket 4.2 23:53:37 58° NNE 23:53:37 58° NNE 23:58:16 10° N
Terra 3.8 23:57:19 21° WNW 23:57:19 21° WNW 23:59:54 10° NW
